Location: Wavehorne
(51.0500°N, 0.8333°E)
Time: 17:21:29
(UTC+00:00)

NOSS 2-2 (C) - Pass Details

Date: 29 October 2021
Orbit: 450 x 1755 km, 63.3° (Epoch: 01 December)

Event Time Altitude Azimuth Distance (km) Brightness Sun altitude
Rises 19:26:35 0° 236° (SW) 2,454 7.2 -27.2°
Reaches altitude 10° 19:28:38 10° 241° (WSW) 1,586 6.2 -27.5°
Enters shadow 19:30:01 23° 249° (WSW) 1,038 5.2 -27.8°
